Location: Borotín
(49.5055°N, 14.6142°E)
Time: 11:12:16
(UTC+00:00)

IRS-1D - Pass Details

Date: 27 May 2022
Orbit: 740 x 816 km, 98.7° (Epoch: 27 June)

Event Time Altitude Azimuth Distance (km) Brightness Sun altitude
Rises 01:21:01 0° 18° (NNE) 3,355 8.5 -12.5°
Reaches altitude 10° 01:23:28 10° 24° (NNE) 2,416 7.5 -12.3°
Maximum altitude 01:28:39 48° 99° (E) 1,045 4.4 -11.8°
Drops below altitude 10° 01:33:43 10° 174° (S) 2,370 5.6 -11.3°
Enters shadow 01:34:29 - 176° (S) 2,659 5.8 -11.2°
